Data for 09/22/2018

Time Sea-Level Adjusted Pressure Absolute Pressure Temperature Relative Humidity Dew Point   
(mb) (inHg) (mb) (inHg) (C) (F) (%) (C) (F)
00:05 1019 30.09 848 25.04 12.5 54.5 34 -2.8 27
00:10 1019 30.09 848 25.04 12.4 54.3 34 -3 26.6
00:15 1019 30.09 848 25.04 12.5 54.5 33 -3.2 26.3
00:20 1019 30.09 848 25.04 12.6 54.7 33 -3.4 26
00:25 1019 30.09 848 25.04 12.7 54.9 33 -3.1 26.5
00:30 1019 30.09 848 25.04 12.8 55 32 -3.4 25.9
00:35 1019 30.09 848 25.04 12.8 55.1 33 -3.1 26.3
00:40 1019 30.09 848 25.04 12.7 54.8 33 -3.2 26.2
00:45 1019 30.09 848 25.04 12.8 55.1 30 -4.1 24.7
00:50 1019 30.09 848 25.04 13.2 55.7 30 -3.9 24.9
00:55 1019 30.09 848 25.04 13.2 55.7 30 -3.8 25.1
01:00 1019 30.09 848 25.04 13 55.4 31 -3.8 25.1
01:05 1018 30.06 848 25.04 13 55.4 29 -4.5 24
01:10 1018 30.06 848 25.04 13.2 55.8 30 -3.8 25.1
01:15 1018 30.06 848 25.04 13 55.3 30 -4 24.9
01:20 1018 30.06 848 25.04 12.9 55.2 30 -4.3 24.3
01:25 1018 30.06 848 25.04 13 55.3 30 -4.3 24.3
01:30 1018 30.06 848 25.04 12.9 55.1 32 -3.5 25.7
01:35 1018 30.06 848 25.04 12.7 54.8 31 -4 24.8
01:40 1018 30.06 848 25.04 12.5 54.6 32 -3.8 25.2
01:45 1018 30.06 848 25.04 12.2 54 31 -4.2 24.4
01:50 1018 30.06 848 25.04 12.1 53.7 32 -3.9 25
01:55 1018 30.06 848 25.04 12 53.7 31 -4.5 23.9
02:00 1018 30.06 847 25.01 12.1 53.9 31 -4.3 24.3
02:05 1018 30.06 847 25.01 12.2 53.9 31 -4.6 23.7
02:10 1018 30.06 847 25.01 12.3 54.2 30 -4.7 23.6
02:15 1018 30.06 847 25.01 12.5 54.5 30 -4.6 23.7
02:20 1018 30.06 848 25.04 12.4 54.3 30 -4.6 23.7
02:25 1018 30.06 847 25.01 12.3 54.2 31 -4.5 23.9
02:30 1018 30.06 847 25.01 12.3 54.1 31 -4.4 24
02:35 1018 30.06 847 25.01 12 53.7 30 -4.9 23.1
02:40 1018 30.06 847 25.01 12.2 54 31 -4.5 23.8
02:45 1018 30.06 847 25.01 12.1 53.8 30 -4.7 23.5
02:50 1018 30.06 847 25.01 12 53.6 31 -4.5 24
02:55 1018 30.06 847 25.01 11.6 53 32 -4.3 24.3
03:00 1018 30.06 847 25.01 11.4 52.5 34 -3.9 25
03:05 1018 30.06 847 25.01 11.3 52.3 31 -5.1 22.9
03:10 1018 30.06 847 25.01 11.4 52.4 35 -3.5 25.7
03:15 1018 30.06 847 25.01 10.7 51.2 38 -3 26.5
03:20 1018 30.06 847 25.01 10.7 51.2 33 -4.7 23.5
03:25 1018 30.06 847 25.01 10.9 51.7 36 -3.4 25.8
03:30 1018 30.06 847 25.01 10.4 50.7 35 -4.4 24.1
03:35 1018 30.06 847 25.01 10.4 50.7 35 -4.3 24.2
03:40 1018 30.06 847 25.01 10.2 50.4 35 -4.6 23.8
03:45 1018 30.06 847 25.01 10.4 50.7 36 -4.2 24.4
03:50 1018 30.06 847 25.01 10.4 50.8 35 -4.5 24
03:55 1018 30.06 847 25.01 10.5 50.9 35 -4.3 24.3
04:00 1018 30.06 847 25.01 10.6 51.1 33 -4.8 23.4
04:05 1018 30.06 847 25.01 10.8 51.5 34 -4.6 23.8
04:10 1018 30.06 847 25.01 11 51.7 32 -5 22.9
04:15 1018 30.06 847 25.01 11.3 52.3 31 -5.2 22.6
04:20 1018 30.06 847 25.01 11.5 52.7 30 -5.4 22.4
04:25 1018 30.06 847 25.01 11.6 52.9 30 -5.5 22.1
04:30 1018 30.06 847 25.01 11.8 53.3 33 -3.7 25.3
04:35 1018 30.06 847 25.01 11 51.9 33 -4.5 23.9
04:40 1018 30.06 847 25.01 10.7 51.3 33 -4.7 23.6
04:45 1018 30.06 848 25.04 10.9 51.7 30 -5.8 21.6
04:50 1018 30.06 848 25.04 11.4 52.5 30 -5.5 22.1
04:55 1018 30.06 848 25.04 11.8 53.2 28 -5.9 21.3
05:00 1018 30.06 848 25.04 12.1 53.8 29 -5.6 21.9
05:05 1018 30.06 848 25.04 12.3 54.1 27 -6 21.2
05:10 1018 30.06 847 25.01 12.1 53.7 30 -5.1 22.8
05:15 1018 30.06 848 25.04 11.6 52.9 31 -5.1 22.9
05:20 1018 30.06 848 25.04 11.2 52.2 33 -4.5 23.9
05:25 1018 30.06 847 25.01 10.8 51.4 32 -5.3 22.4
05:30 1018 30.06 847 25.01 11.3 52.3 30 -5.5 22.1
05:35 1018 30.06 847 25.01 11.4 52.5 29 -6.2 20.8
05:40 1018 30.06 847 25.01 11.6 52.8 31 -5 22.9
05:45 1018 30.06 847 25.01 11.4 52.4 29 -6.2 20.8
05:50 1018 30.06 847 25.01 11.7 53.1 30 -5.2 22.7
05:55 1018 30.06 847 25.01 11.4 52.4 30 -5.6 22
06:00 1018 30.06 847 25.01 11.3 52.3 30 -5.7 21.7
06:05 1018 30.06 847 25.01 11.4 52.4 30 -5.6 21.8
06:10 1018 30.06 847 25.01 11.3 52.3 31 -5.4 22.2
06:15 1018 30.06 847 25.01 11.2 52.1 29 -6.1 21
06:20 1018 30.06 847 25.01 11.6 52.9 29 -5.9 21.3
06:25 1018 30.06 847 25.01 11.9 53.4 26 -7.1 19.3
06:30 1018 30.06 847 25.01 12.4 54.4 28 -5.7 21.7
06:35 1018 30.06 847 25.01 11.6 52.9 33 -4.1 24.6
06:40 1018 30.06 847 25.01 10.5 51 34 -4.5 23.8
06:45 1018 30.06 847 25.01 10.3 50.5 32 -5.5 22.1
06:50 1018 30.06 847 25.01 10.9 51.5 30 -5.8 21.5
06:55 1018 30.06 847 25.01 11 51.7 32 -4.9 23.2
07:00 1018 30.06 847 25.01 10.7 51.3 30 -6 21.2
07:05 1018 30.06 847 25.01 10.8 51.4 33 -4.9 23.2
07:10 1018 30.06 847 25.01 10.4 50.7 34 -4.9 23.2
07:15 1018 30.06 847 25.01 10.5 51 33 -5.2 22.7
07:20 1018 30.06 847 25.01 10.8 51.4 32 -5.1 22.9
07:25 1018 30.06 847 25.01 10.7 51.2 30 -6 21.2
07:30 1018 30.06 847 25.01 11.1 52 30 -5.9 21.4
07:35 1018 30.06 847 25.01 11.3 52.3 30 -5.8 21.6
07:40 1018 30.06 847 25.01 11.5 52.6 29 -5.7 21.7
07:45 1018 30.06 847 25.01 11.5 52.6 29 -5.8 21.6
07:50 1018 30.06 847 25.01 11.5 52.7 30 -5.3 22.5
07:55 1018 30.06 847 25.01 11.4 52.5 31 -5.2 22.7
08:00 1018 30.06 847 25.01 11.6 52.8 30 -5.3 22.4
08:05 1018 30.06 847 25.01 12 53.5 28 -5.9 21.4
08:10 1018 30.06 847 25.01 12.5 54.5 28 -5.5 22
08:15 1018 30.06 847 25.01 12.7 54.9 27 -5.7 21.7
08:20 1018 30.06 847 25.01 12.9 55.2 27 -5.4 22.4
08:25 1018 30.06 847 25.01 13.1 55.5 27 -5.2 22.6
08:30 1018 30.06 847 25.01 13.2 55.8 26 -5.8 21.5
08:35 1018 30.06 847 25.01 13.6 56.4 26 -5.5 22
08:40 1018 30.06 847 25.01 13.9 57 25 -5.6 21.9
08:45 1018 30.06 847 25.01 13.9 57 23 -6.6 20.1
08:50 1018 30.06 847 25.01 14.3 57.7 25 -5.5 22.1
08:55 1018 30.06 847 25.01 14.4 57.9 24 -6.1 21.1
09:00 1018 30.06 847 25.01 14.6 58.2 24 -5.6 21.9
09:05 1018 30.06 847 25.01 14.6 58.2 26 -4.7 23.5
09:10 1018 30.06 847 25.01 14.6 58.3 24 -5.4 22.2
09:15 1018 30.06 847 25.01 14.8 58.6 24 -5.5 22.1
09:20 1018 30.06 847 25.01 14.8 58.7 24 -5.5 22.2
09:25 1018 30.06 847 25.01 14.8 58.7 24 -5.3 22.4
09:30 1018 30.06 847 25.01 14.9 58.9 24 -5.5 22
09:35 1018 30.06 847 25.01 14.9 58.9 26 -4.2 24.4
09:40 1018 30.06 847 25.01 14.8 58.7 26 -4.4 24.1
09:45 1018 30.06 847 25.01 14.8 58.6 26 -4.5 23.8
09:50 1018 30.06 847 25.01 14.9 58.8 28 -3.2 26.2
09:55 1018 30.06 847 25.01 14.9 58.8 27 -3.8 25.2
10:00 1018 30.06 847 25.01 14.8 58.6 27 -3.8 25.2
10:05 1018 30.06 847 25.01 15 59.1 27 -3.7 25.3
10:10 1018 30.06 847 25.01 15.3 59.5 27 -3.3 26.1
10:15 1018 30.06 847 25.01 15.4 59.7 30 -2.2 28
10:20 1018 30.06 847 25.01 15.1 59.2 33 -1.1 29.9
10:25 1018 30.06 847 25.01 14.9 58.9 32 -1.6 29.1
10:30 1018 30.06 847 25.01 15.3 59.5 31 -1.7 28.9
10:35 1018 30.06 847 25.01 15.5 59.9 34 0 32
10:40 1018 30.06 847 25.01 15.6 60.1 31 -1.4 29.5
10:45 1018 30.06 847 25.01 15.5 60 33 -0.7 30.7
10:50 1018 30.06 847 25.01 15.7 60.3 35 0.5 32.9
10:55 1018 30.06 847 25.01 16.1 61 32 -0.4 31.3
11:00 1018 30.06 847 25.01 16.2 61.2 31 -0.8 30.6
11:05 1018 30.06 847 25.01 16.4 61.5 32 -0.3 31.4
11:10 1018 30.06 847 25.01 16.7 62.1 29 -1.1 30